www.pogodaiklimat.ru

Погода и климат >> Архив погоды >> Канада >> Нунавут >> Холл Бич


ПОГОДА в Холл Бич

  • Прогноз погоды в Холл Бич
  • Монитор погоды в Холл Бич

АРХИВ ПОГОДЫ в Холл Бич

Время (UTC), дата Ветер
(напр.,м/с)
 
Видим.   Явления Облачность Т
(С)
Тd
(С)
f
(%)
Тe
(С)
Тes
(С)
Комфортность P
(гПа)
Po
(гПа)
Тmin
(С)
Tmax
(С)
R
(мм)
R24
(мм)
S
(см)
06 10.07 ЮВ 6 300 м слаб. дождь н/о +3.6 +3.6 100 -2 -2 1015.2 1014.1 +3.4 +9.7
09 10.07 ЮВ 7 16 км 9/9 50 м
[]
+3.7 +3.7 100 -2 -2 1014.0 1012.9
12 10.07 ЮВ 9 16 км слаб. дождь 10/10 1000 м
[]
+5.0 +5.0 100 -1 -1 1011.6 1010.5 +3.3 +9.7
15 10.07 ЮВ 9 16 км слаб. дождь {осадки} 10/10 300 м
[]
+4.4 +4.4 100 -2 -2 1009.1 1008.0
18 10.07 ЮВ 9 6000 м слаб. дождь {осадки} 10/10 50 м
[]
+4.3 +4.3 100 -3 -3 1006.7 1005.6 +3.3 +5.3 2
21 10.07 Ю 9 2800 м дымка {осадки} 10/10 50 м
[]
+4.2 +4.2 100 -2 -2 1005.1 1004.0
00 11.07 Ю 8 16 км 10/10 50 м
[]
+3.7 +3.7 100 -3 -3 1004.6 1003.5 +3.3 +5.1 1
03 11.07 Ю 7 700 м слаб. дождь н/о +2.5 +2.5 100 -4 -4 1004.3 1003.2
06 11.07 Ю 7 16 км 10/10 50 м
[]
+2.9 +2.9 100 -4 -4 1003.3 1002.2 +2.4 +5.3 191
09 11.07 Ю 6 16 км 10/10 300 м
[]
+3.3 +3.3 100 -3 -3 1002.6 1001.5
12 11.07 Ю 6 16 км 10/10 100 м
[]
+3.1 +3.1 100 -3 -3 1001.9 1000.8 +2.4 +5.3
15 11.07 Ю 7 1600 м дымка 10/10 100 м
[]
+3.4 +3.4 100 -3 -3 1000.9 999.8
18 11.07 ЮВ 5 2000 м дымка 10/10 50 м
[]
+2.9 +2.9 100 -3 -3 1000.3 999.2 +2.4 +3.9
21 11.07 ЮВ 6 3200 м дымка 10/10 50 м
[]
+2.3 +2.3 100 -4 -4 999.8 998.7
00 12.07 ЮВ 5 16 км 9/0
[]
+3.5 +3.5 100 -2 +1 999.5 998.4 +2.0 +4.0
03 12.07 Ю 6 2400 м дымка 10/10 50 м
[]
+3.6 +3.6 100 -2 -2 998.8 997.7
06 12.07 ЮВ 4 2800 м дымка 10/10 50 м
[]
+2.4 +2.4 100 -3 -3 998.5 997.4 +2.0 +4.1 8
09 12.07 ЮВ 5 2800 м дымка 10/10 50 м
[]
+2.8 +2.8 100 -3 -3 998.5 997.4
12 12.07 ЮВ 3 9000 м дымка 10/10 50 м
[]
+2.6 +2.6 100 -2 -2 998.6 997.5 +1.7 +4.1
15 12.07 Ю 4 16 км 10/10 100 м
[]
+3.2 +3.1 99 -2 -2 998.3 997.2
18 12.07 ЮВ 5 3200 м слаб. дождь 9/9 50 м
[]
+3.0 +3.0 100 -3 -2 998.4 997.3 +1.7 +3.9
21 12.07 ЮВ 6 8000 м слаб. дождь 9/9 50 м
[]
+3.4 +3.2 99 -3 -2 998.5 997.4
00 13.07 ЮВ 6 16 км 9/0 2000 м
[]
+3.5 +3.5 100 -2 -1 998.5 997.4 +1.7 +4.5
03 13.07 ЮВ 6 16 км 3/3 50 м
[]
+3.5 +3.5 100 -2 -2 998.5 997.4
06 13.07 ЮВ 7 16 км 10/10 1500 м
[]
+3.0 +3.0 100 -4 -4 998.2 997.1 +1.7 +4.5 4
09 13.07 В 7 700 м туман н/о +2.2 +2.2 100 -4 -4 997.3 996.2
12 13.07 В 6 1600 м дымка н/о +3.1 +3.1 100 -3 -3 995.9 994.8 +1.3 +4.5
15 13.07 ЮВ 6 2000 м дымка 10/10 50 м
[]
+2.8 +2.8 100 -3 -3 995.2 994.1
18 13.07 ЮВ 5 4000 м слаб. дождь 10/10 50 м
[]
+2.5 +2.5 100 -3 -3 994.6 993.5 +1.3 +3.3
21 13.07 ЮВ 4 16 км слаб. дождь {осадки} 10/10 50 м
[]
+2.9 +2.9 100 -2 -2 994.4 993.3
00 14.07 ЮВ 6 8000 м слаб. дождь 10/10 50 м
[]
+2.6 +2.6 100 -3 -3 994.5 993.4 +1.3 +3.3 2
03 14.07 ЮЗ 6 300 м туман н/о +4.1 +4.1 100 -2 -2 996.3 995.2
06 14.07 Ю 6 16 км ясно +4.7 +3.9 95 -1 -1 998.6 997.5 +1.3 +5.4 81
09 14.07 Ю 6 16 км {осадки} ясно +4.5 +4.2 98 -1 -1 1000.8 999.7
12 14.07 Ю 5 16 км ясно +5.2 +3.7 90 +1 +1 1002.4 1001.3 +2.6 +5.4 0.3
15 14.07 Ю 6 16 км 9/9 1500 м
[]
+4.2 +2.7 90 -1 -1 1003.4 1002.3
18 14.07 Ю 8 16 км ясно +4.6 +3.6 93 -1 +1 1003.4 1002.3 +2.4 +7.0
21 14.07 Ю 8 16 км 10/0 2000 м
[]
+4.2 +3.2 93 -2 -0 1004.0 1002.9
00 15.07 Ю 5 16 км 3/0 2000 м
[]
+4.0 +3.4 96 -1 +2 1004.0 1002.9 +3.6 +6.1
03 15.07 ЮВ 5 16 км 10/10 1500 м
[]
+3.5 +3.5 100 -2 -2 1004.3 1003.2
06 15.07 ЮВ 5 16 км 5/5 1500 м
[]
+2.4 +2.4 100 -3 -3 1004.2 1003.1 +2.3 +7.0 81
09 15.07 ЮВ 6 16 км 10/10 1500 м
[]
+2.7 +2.7 100 -3 -3 1004.5 1003.4
12 15.07 Ю 3 16 км 10/10 1500 м
[]
+3.1 +2.8 98 -1 -1 1005.0 1003.9 +2.3 +7.0
15 15.07 В 3 16 км 9/0
[]
+4.3 +2.7 89 +1 +3 1005.1 1004.0
18 15.07 ЮВ 4 16 км 9/0 2000 м
[]
+4.6 +3.0 89 +1 +6 1005.2 1004.1 +2.3 +5.8
21 15.07 ЮВ 4 16 км 3/0
[]
+4.4 +2.9 90 -0 +9 1005.4 1004.3
00 16.07 Ю 4 16 км ясно +5.4 +3.6 88 +2 +8 1005.6 1004.5 +2.3 +6.4
03 16.07 Ю 2 16 км ясно +4.1 +4.0 99 +2 +2 1005.7 1004.6
06 16.07 ЮВ 3 16 км ясно +2.0 +2.0 100 -3 -3 1005.4 1004.3 +2.0 +6.4
09 16.07 ЮВ 2 500 м туман н/о +1.8 +1.8 100 -2 -2 1005.3 1004.2
12 16.07 В 2 500 м туман н/о +2.4 +2.4 100 -1 -1 1005.3 1004.2 +1.5 +6.4
15 16.07 В 2 16 км ясно +5.9 +4.1 88 +4 +8 1004.5 1003.4
18 16.07 В 3 16 км ясно +5.2 +3.8 91 +2 +13 опасность
простуды
1003.7 1002.6 +1.5 +6.5
21 16.07 ЮВ 4 16 км ясно +5.9 +5.4 97 +2 +14 опасность
простуды
1003.1 1002.0
00 17.07 Ю 3 16 км ясно +7.9 +5.8 87 +5 +12 1002.3 1001.2 +1.5 +8.1
03 17.07 Ю 2 16 км ясно +6.0 +6.0 100 +3 +4 1001.2 1000.1

 

Местоположение метеостанции Холл Бич (Нунавут, Канада): широта 50.00 долгота -123.12 высота над уровнем моря 883 м.

В архиве по умолчанию представлена погода в Холл Бич за последнюю неделю. Архивные данные за месяц целиком и за предыдущие месяцы, начиная с января 2011 года, Вы можете получить, выбрав интересующий диапазон дат из раскрывающегося списка и нажав кнопку "Ввод!".


*Определитесь, кто Вы:
робот инопланетянин человек

Внимание! Время в таблицах - всемирное. Для получения местного времени необходимо прибавить поправку, которая равна -8 ч.

Смотрите также архив погоды в соседних городах и на ближайших метеорологических станциях:

Погода в Долине Каллагхан (Британская Колумбия, Канада) (13 км)
Погода в Шеффервилл аэропорту (Квебек, Канада) (15 км)
Погода в Эрлтоне аэропорт (Онтарио, Канада) (18 км)
Погода в Ревелстоке (Британская Колумбия, Канада) (18 км)
Погода в Блэккомбе (Британская Колумбия, Канада) (18 км)
Погода в Дис Лейк (Британская Колумбия, Канада) (18 км)
Погода в Уистлере (Британская Колумбия, Канада) (19 км)
Погода на Базе Блэккомб (Британская Колумбия, Канада) (21 км)
Погода в Сквамише (Британская Колумбия, Канада) (25 км)
Погода в Пембертоне (Британская Колумбия, Канада) (45 км)

Пояснения к столбцам:

Ветер - указаны скорость ветра в м/с - средняя за 10 мин, порывы в срок и между сроками (в фигурных скобках) и направление, откуда дует ветер: С - северный, СВ - северо-восточный, В - восточный, ЮВ - юго-восточный, Ю - южный, ЮЗ - юго-западный, З - западный, СЗ - северо-западный.
Видимость - горизонтальная дальность видимости в метрах или километрах. При видимости от 1 до 10 км при отсутствии осадков обычно наблюдается дымка, при ухудшении видимости до 1 км и менее - туман. В сухую погоду видимость может ухудшаться дымом, пылью или мглою.
Явления - указаны атмосферные явления, наблюдавшиеся в срок или в последний час перед сроком; фигурными скобками обозначены явления, наблюдавшиеся между сроками (за 1-3 часа до срока); квадратными скобками обозначены град или гололедные отложения с указанием их диаметра в мм.
Облачность - указаны через наклонную черту общая и нижняя облачность в баллах и высота нижней границы облаков в метрах; квадратными скобками обозначены формы облаков: Ci - перистые, Cs - перисто-слоистые, Cc - перисто-кучевые, Ac - высококучевые, As - высокослоистые, Sc - слоисто-кучевые, Ns - слоисто-дождевые, Cu - кучевые, Cb - кучево-дождевые. Подробнее классификацию облаков см. в Атласе облаков (PDF).
T - Температура воздуха - температура, измеренная на высоте 2 м над землей.
Td - Температура точки росы - температура, при понижении до которой содержащийся в воздухе водяной пар достигнет насыщения.
f - Относительная влажность воздуха - влажноcть воздуха, измеренная на высоте 2 м над землей.
Te - Эффективная температура - температура, которую ощущает одетый по сезону человек в тени. Характеристика душности погоды. При расчете учитывается влияние влажности воздуха и скорости ветра на теплоощущения человека.
Tes - Эффективная температура на солнце - температура, которую ощущает человек, с поправкой на солнечный нагрев. Характеристика знойности погоды. Зависит от высоты солнца над горизонтом, облачности и скорости ветра. Ночью, в пасмурную погоду, а также при ветре 12 м/с и более поправка равна нулю.
P - Атмосферное давление - приведенное к уровню моря атмосферное давление.
Po - Атмосферное давление - измеренное на уровне метеостанции атмосферное давление.
Tmin - Минимальная температура - минимум температуры воздуха на высоте 2 м над землей.
Tmax - Максимальная температура - максимум температуры воздуха на высоте 2 м над землей.
R - Количество осадков - Количество выпавших осадков за период времени, мм. При наведении курсора мыши на число - период времени, за который выпало указанное количество осадков.
R24 - Количество осадков - Количество выпавших осадков за 24 часа, мм.
S - Снежный покров - Высота снежного покрова, см. При наведении курсора мыши на число - состояние снежного покрова и степень покрытия местности в баллах.